sat.trackr.live / text

‹ back to catalog

STARLINK-35308

NORAD 65848 · 2025-221AB

PAYLOAD ACTIVE UNKNOWN

§ Identity

Operator
Country
US
Launch date
2025-09-29
Launch site
AFWTR
Launch vehicle
Mass (kg)
RCS (m²)

Purposes: comms

External: N2YO · Heavens-Above · Gunter

§ Orbital elements

Epoch: 2026-05-25T03:24:02.365056Z

Period
93.85 min
Inclination
53.1594°
Eccentricity
0.0001034
Mean motion
15.34403617 rev/d
Perigee alt
462.0 km
Apogee alt
463.4 km
Semi-major
6,840.8 km
B*
8.0628e-4
RAAN
92.8636°
Arg perigee
72.0370°
Mean anomaly
288.0745°
Rev number
3,779

§ Raw data

STARLINK-353081 65848U 25221AB  26145.14169404  .00026966  00000+0  80628-3 0  99952 65848  53.1594  92.8636 0001034  72.0370 288.0745 15.34403617 37795

JSON: /api/v1/satellites/65848 · /tle

For live sub-satellite position, see the globe view (requires WebGL).

§ Visibility from observer

Set your observer location to see the next 7 days of passes ≥ 10°. The values pass through the URL so the page stays shareable.

No JS? Fill the form by hand. The geolocation button needs JavaScript.